Location: Dobrije
(46.5500°N, 14.9833°E)
Time: 04:21:54
(UTC+00:00)

Daily predictions for brighter satellites

Satellite Brightness Start Highest point End
(mag) Time Altitude Azimuth Time Altitude Azimuth Time Altitude Azimuth
Okean 1 Rocket 3.9 00:09:30 47° NNW 00:09:30 47° NNW 00:12:46 10° N
SJ 16-02 2.1 00:09:53 52° N 00:09:53 52° N 00:13:17 10° NNE
SL-16 R/B 2.6 00:09:09 10° NW 00:13:48 50° WNW 00:13:48 50° WNW
Cosmos 2263 Rocket 3.2 00:14:58 33° ESE 00:15:17 33° ESE 00:20:12 10° NE
Cosmos 2142 Rocket 4.4 00:17:47 68° SW 00:18:30 76° W 00:24:56 10° N
Cosmos 724 4.4 00:13:10 10° NNW 00:19:12 77° NE 00:20:59 48° SE
MOZ.5/SAFIR/RUBIN 5/SL-8 3.9 00:22:13 74° N 00:22:13 74° N 00:26:34 10° NNW
SL-19 R/B 4.1 00:20:38 10° NNE 00:26:28 90° WNW 00:26:52 78° SSW
Cosmos 1937 Rocket 3.6 00:27:08 65° ESE 00:27:14 66° ESE 00:32:31 10° NNE
CZ-4C R/B 4.5 00:29:47 38° NNE 00:29:47 38° NNE 00:32:22 10° N
Cosmos 990 Rocket 3.9 00:29:47 82° NW 00:29:47 82° NW 00:34:56 10° NNE
Cosmos 2297 Rocket 3.5 00:28:55 27° WNW 00:30:17 30° NW 00:35:15 10° N
Okean 1-7 Rocket 3.9 00:27:10 10° N 00:31:14 65° NE 00:31:14 65° NE
ADEOS II 3.7 00:27:37 10° NE 00:31:58 26° E 00:33:36 22° ESE
Cosmos 1455 Rocket 3.4 00:35:30 64° ENE 00:35:30 64° ENE 00:39:36 10° NNE
Cosmos 2266 Rocket 4.0 00:30:16 10° N 00:36:37 75° E 00:38:25 48° SSE
ATLAS CENTAUR R/B 3.5 00:37:35 18° E 00:37:35 18° E 00:39:39 10° ENE
Cosmos 2112 Rocket 4.5 00:32:36 10° NNW 00:36:46 47° WNW 00:36:46 47° WNW
USA 229 DEB 3.5 00:36:45 61° SW 00:38:04 89° SE 00:44:59 10° NE
USA 229 3.5 00:36:53 61° SW 00:38:10 89° SE 00:45:05 10° NE
UNK 3.7 00:38:59 83° NE 00:38:59 83° NE 00:43:36 10° NNW
Cosmos 1726 3.9 00:39:49 26° E 00:39:49 26° E 00:42:36 10° NNE
Cosmos 2237 Rocket 4.5 00:41:10 10° WNW 00:41:11 10° WNW 00:41:11 10° WNW
Cosmos 1898 Rocket 3.5 00:43:57 67° W 00:44:12 69° WNW 00:49:25 10° NNE
GEOS 3 Rocket 3.8 00:41:22 10° NE 00:46:44 59° SE 00:47:19 56° SSE
NOSS 2-3 (C) 3.7 00:48:09 73° E 00:48:09 73° E 00:52:56 10° NE
Cosmos 1892 Rocket 4.1 00:44:18 10° NNW 00:47:51 49° NW 00:47:51 49° NW
Meteor 1-24 Rocket 3.8 00:44:02 10° NNW 00:49:06 54° W 00:49:06 54° W
NOSS 3-1 (A) 3.1 00:48:36 66° SSW 00:49:25 80° SE 00:55:48 10° NE
IRAS Rocket 4.1 00:49:56 65° SSW 00:50:39 75° WSW 00:56:18 10° NNW
Cosmos 1603 3.6 00:49:37 10° NNW 00:55:24 89° ENE 00:57:17 45° SSE
Cosmos 1461 4.3 00:55:29 30° WNW 00:56:07 31° NW 01:00:14 10° NNE
Cosmos 1340 Rocket 3.1 01:07:07 60° NNW 01:07:07 60° NNW 01:10:34 10° N
CZ-2D R/B 2.2 01:01:25 10° N 01:06:54 72° WNW 01:08:00 56° SW
Cosmos 1758 3.4 01:08:43 69° NW 01:08:43 69° NW 01:12:24 10° N
SL-16 R/B 2.7 01:09:26 48° SW 01:10:37 54° W 01:16:46 10° NNW
Timation 1 Rocket 4.5 01:10:12 47° WSW 01:11:45 63° WNW 01:17:43 10° NNE
SL-24 R/B 4.4 01:12:55 58° SW 01:13:29 63° W 01:18:46 10° N
Cosmos 1943 3.0 01:08:19 10° NNW 01:13:57 79° WSW 01:16:10 38° SSE
USA 215 4.4 01:08:22 10° ENE 01:14:00 30° SE 01:16:30 24° SSE
Cosmos 1626 4.4 01:14:18 10° NW 01:15:17 15° NW 01:15:17 15° NW
Cosmos 1655 Rocket 4.4 01:11:34 10° NNW 01:17:24 43° W 01:18:27 40° WSW
Cosmos 2227 Rocket 4.2 01:18:31 12° WNW 01:21:27 18° NW 01:25:12 10° N
Cosmos 1544 Rocket 3.7 01:22:37 54° W 01:22:51 55° WNW 01:27:16 10° N
Cosmos 1470 3.6 01:24:19 39° WNW 01:24:19 39° WNW 01:27:46 10° N
IRS-1D 3.5 01:18:50 10° NNE 01:23:58 81° ESE 01:25:39 44° S
Cosmos 1953 2.2 01:23:54 72° SSE 01:24:17 83° E 01:28:22 10° N
NPP 3.8 01:20:22 10° N 01:25:41 59° WNW 01:27:05 45° WSW
AQUA 4.0 01:28:46 10° N 01:33:26 56° WNW 01:34:26 46° WSW
Atlas Centaur 2 4.0 01:38:02 17° SSE 01:38:02 17° SSE 01:42:24 10° SE
Resurs 1-4 Rocket 2.9 01:35:21 10° N 01:40:09 37° WNW 01:41:36 31° W
Exosat Rocket 4.5 01:36:53 32° SW 01:40:28 58° WNW 01:46:20 10° NNE
Meteor 2-16 Rocket 4.4 01:35:15 10° N 01:41:28 85° E 01:46:34 16° S
Cosmos 1602 Rocket 3.5 01:39:21 10° NNW 01:43:37 60° W 01:44:26 50° SW
Meteor 2-21 Rocket 4.3 01:38:10 10° NNW 01:44:15 79° W 01:48:18 22° S
USA 267 4.2 01:41:05 10° E 01:47:18 49° NNE 01:53:32 10° NW
SJ 16-02 3.7 01:46:52 10° WNW 01:48:13 11° NW 01:49:37 10° NNW
IDEFIX/ARIANE 42P 3.5 01:44:05 10° NNE 01:49:03 43° E 01:53:20 14° SSE
Meteor 2-14 Rocket 4.5 01:43:33 10° NNW 01:49:30 60° W 01:52:41 28° SSW
Cosmos 1048 Rocket 3.9 01:52:03 10° NNW 01:57:10 65° WSW 02:01:22 15° S
Cosmos 1908 3.1 01:56:15 41° SSW 01:57:33 87° W 02:01:30 10° N
IRS-P3 4.1 01:53:35 10° NNE 01:58:57 79° WNW 02:01:52 28° SSW
Cosmos 2263 Rocket 2.8 01:56:40 28° WSW 01:59:04 42° NW 02:04:23 10° NNE
Cosmos 1726 Rocket 4.4 01:56:26 16° SSE 01:59:44 50° E 02:04:04 10° NNE
Cosmos 2298 Rocket 4.2 01:57:57 33° SW 02:00:16 61° WNW 02:05:34 10° NNE
Cosmos 2228 3.3 01:59:31 23° S 02:02:12 68° E 02:06:36 10° NNE
Meteor 1-16 Rocket 4.2 02:01:57 28° SSW 02:04:50 68° WNW 02:10:27 10° N
Meteor 1-28 Rocket 3.2 02:06:34 32° SSW 02:08:07 61° W 02:11:54 10° NNW
SL-08 R/B 3.4 02:05:26 19° S 02:08:55 62° WSW 02:13:50 10° NNW
ADEOS II 2.5 02:06:51 10° N 02:11:53 47° WNW 02:14:31 26° SW
Cosmos 1356 Rocket 3.7 02:10:31 19° S 02:13:25 66° E 02:17:29 10° NNE
Spot 4 Rocket 4.2 02:08:36 10° NNE 02:13:47 73° ESE 02:18:03 15° S
CZ-2C R/B 3.7 02:10:17 10° NNE 02:13:57 43° E 02:17:08 12° S
Cosmos 1726 3.6 02:14:19 21° W 02:14:40 21° WNW 02:17:34 10° NNW
CZ-4B R/B 4.3 02:10:31 10° N 02:14:44 32° WNW 02:16:40 23° WSW
Cosmos 2285 Rocket 4.1 02:10:59 25° SW 02:14:44 62° WNW 02:21:00 10° NNE
ATLAS CENTAUR R/B 1.6 02:13:46 30° WSW 02:15:26 52° NW 02:19:16 10° NNE
Cosmos 1900 4.3 02:11:24 10° NW 02:16:32 71° WSW 02:21:39 10° SSE
Cosmos 1300 3.4 02:14:37 13° SSE 02:17:51 51° E 02:21:35 10° NNE
Cosmos 1269 Rocket 4.2 02:13:45 10° NNW 02:19:05 76° ENE 02:24:23 10° SSE
Cosmos 1553 Rocket 3.9 02:15:29 19° SSW 02:20:02 73° W 02:26:12 10° N
NOSS 2-2 (C) 4.1 02:18:19 20° S 02:20:20 38° ESE 02:23:56 10° NE
Cosmos 1844 Rocket 2.8 02:17:42 18° SSW 02:21:53 73° ESE 02:27:27 10° NNE
ERS-2 3.3 02:18:32 10° SE 02:22:01 45° ENE 02:25:32 10° N
NOSS 8 (H) 4.0 02:24:25 34° SW 02:25:38 86° NW 02:28:40 10° NE
CZ-4C R/B 3.3 02:22:29 10° SSE 02:25:45 65° ENE 02:29:09 10° N
Meteor 1-11 4.2 02:20:16 10° NNW 02:26:00 72° W 02:31:37 10° S
SL-08 ROCKET BODY 4.3 02:23:10 10° NNW 02:29:11 72° W 02:35:04 10° S
CSL-04 DEB 4.3 02:26:16 10° SSE 02:30:11 88° WSW 02:34:12 10° NNW
Cosmos 1745 Rocket 3.9 02:24:41 10° NNW 02:30:58 75° W 02:37:07 10° S
Cosmos 2084 4.3 02:28:47 20° W 02:31:24 40° NW 02:35:38 10° NNE
ARIANE 5 R/B 2.8 02:27:12 10° N 02:32:20 57° WNW 02:36:11 18° SW
Lacrosse 5 rocket 4.0 02:30:54 10° SSE 02:33:16 14° ESE 02:35:38 10° E
Cosmos 1758 Rocket 4.3 02:31:52 10° NNW 02:35:46 33° W 02:38:14 19° SW
SeaSat 1 4.2 02:32:01 10° NE 02:36:14 28° ESE 02:40:26 10° SSE
Meteor 2-15 4.4 02:32:19 10° S 02:38:22 88° WNW 02:44:28 10° N
Cosmos 1867 4.3 02:36:36 10° NNW 02:42:00 57° NE 02:47:22 10° SE
Cosmos 494 Rocket 4.4 02:40:39 10° NW 02:45:26 39° WSW 02:50:14 10° S
CZ-2D R/B 4.2 02:43:33 10° NNW 02:46:00 13° NW 02:48:27 10° W
Cosmos 2058 Rocket 3.0 02:41:43 10° S 02:46:11 85° W 02:50:38 10° N
H-2A R/B 1.9 02:42:48 10° S 02:46:53 69° WSW 02:50:59 10° NNW
S3M 4.2 02:45:39 10° SSW 02:51:56 59° WNW 02:58:16 10° N
CZ-2C R/B 3.1 02:48:27 10° NNE 02:52:58 52° E 02:57:32 10° S
Cosmos 2058 4.1 02:49:41 10° N 02:53:45 47° ENE 02:57:48 10° SSE
Landsat 5 3.4 02:51:54 10° S 02:55:50 59° WSW 02:59:58 10° NNW
USA 215 3.3 02:50:55 10° NE 02:57:31 88° NW 03:03:50 11° WSW
Cosmos 1125 Rocket 4.4 02:54:00 14° WSW 02:57:57 34° WNW 03:02:47 10° N
Cosmos 1408 4.4 02:54:32 10° N 02:57:59 35° ENE 03:01:24 10° SE
In-Cosmos 22 Rocket 4.4 02:52:23 10° N 02:58:16 82° E 03:04:03 10° SSE
Cosmos 1892 3.0 03:00:51 10° N 03:04:42 70° E 03:08:29 10° SSE
CZ-4B R/B 2.3 03:01:38 10° SSE 03:04:44 49° ENE 03:07:47 10° N
Cosmos 1953 Rocket 4.4 03:01:49 10° NNW 03:05:47 32° W 03:09:43 10° SSW
Cosmos 1709 Rocket 4.0 03:04:38 10° NNW 03:10:44 66° W 03:16:46 10° S
ALOS 4.2 03:09:01 10° NNE 03:13:12 31° E 03:17:21 10° SSE
PAYLOAD A 4.1 03:10:08 10° NNE 03:15:28 84° WNW 03:20:33 10° SSW
USA 238 DEB 4.0 03:14:51 10° NW 03:22:07 88° NE 03:29:38 10° SE
USA 238 4.0 03:14:57 10° NW 03:22:13 87° NE 03:29:44 10° SE
Atlas Centaur 2 4.2 03:21:25 10° SW 03:26:13 20° S 03:31:35 10° SE
NOSS 2-2 (E) 4.0 03:23:05 10° WSW 03:26:30 39° NW 03:30:26 10° NNE
NOSS 2-2 (D) 3.7 03:23:51 10° WSW 03:27:19 47° NW 03:31:14 10° NNE
CENTAUR R/B 3.7 03:20:27 10° NW 03:28:26 70° NE 03:37:13 10° SE
IDEFIX/ARIANE 42P 3.6 03:24:02 10° N 03:28:27 29° WNW 03:32:52 10° WSW
USA 267 3.3 03:23:34 10° SE 03:30:07 76° SW 03:36:41 10° NW
ADEOS 3.9 03:25:11 10° NNE 03:30:26 75° ESE 03:35:39 10° S
